FLOCK 3P-16

Last updated on Wed Feb 14 2018 16:20:32 GMT+0000 (Coordinated Universal Time)

1 42011U 17008BR 18045.45408395 .00002360 00000-0 10062-3 0 9993 2 42011 97.4653 111.0735 0009158 89.3532 270.8754 15.23908442 54599
UTC large
Height (km)
Speed (km/s)
/
Latitude / Longitude
Inclination (degrees)
Orbital Period (minutes)
Azimuth
Elevation
Range (km)
Doppler Factor

Next 0 passes for location: London (51.5072 / 0.1276)

Sorry there are no passes over London.